PIMOHWEATHER Station Historical Data
Daily Summary for May 31, 2020 Units:  Metric    English   Both
Daily Weekly Monthly Yearly
  High: Low: Average:
Temperature: 37.0 °C 28.0 °C 32.2 °C
Dew Point: 28.0 °C 23.0 °C 25 °C
Humidity: 85% 47% 67%
Wind Speed: 30km/h 0km/h 7.6km/h
Wind Gust: 32km/h - -
Wind- - SSE
Pressure: 1012.9 hPa 1007.5 hPa -
Precipitation: 0.00 mm    
 
 
Tabular Data for May 31, 2020
Time Temperature Dew Point Pressure Wind Wind Speed Wind Gust Humidity Rainfall Rate (Hourly) solar
00:04 29.0 °C 26.0 °C 1011.9 hPa Calm     83% 0.00 mm 0.00 W/m2
00:09 29.0 °C 26.0 °C 1012.2 hPa Calm     83% 0.00 mm 0.00 W/m2
00:14 29.0 °C 26.0 °C 1012.2 hPa Calm     83% 0.00 mm 0.00 W/m2
00:19 29.0 °C 26.0 °C 1012.2 hPa Calm     83% 0.00 mm 0.00 W/m2
00:24 29.0 °C 26.0 °C 1011.9 hPa Calm     83% 0.00 mm 0.00 W/m2
00:29 29.0 °C 26.0 °C 1012.2 hPa Calm     83% 0.00 mm 0.00 W/m2
00:34 30.0 °C 26.0 °C 1012.2 hPa Calm     83% 0.00 mm 0.00 W/m2
00:39 29.0 °C 26.0 °C 1011.9 hPa Calm     82% 0.00 mm 0.00 W/m2
00:44 30.0 °C 26.0 °C 1011.9 hPa Calm     82% 0.00 mm 0.00 W/m2
00:49 30.0 °C 26.0 °C 1011.9 hPa ESE 3 km/h 4 km/h 82% 0.00 mm 0.00 W/m2
00:54 30.0 °C 26.0 °C 1011.9 hPa SE 1 km/h 4 km/h 82% 0.00 mm 0.00 W/m2
00:59 30.0 °C 26.0 °C 1011.5 hPa Calm     82% 0.00 mm 0.00 W/m2
01:04 30.0 °C 26.0 °C 1011.5 hPa Calm     82% 0.00 mm 0.00 W/m2
01:09 30.0 °C 26.0 °C 1011.5 hPa SE 5 km/h 8 km/h 82% 0.00 mm 0.00 W/m2
01:14 29.0 °C 26.0 °C 1011.5 hPa ESE 4 km/h 4 km/h 82% 0.00 mm 0.00 W/m2
01:19 29.0 °C 26.0 °C 1011.5 hPa East 1 km/h 4 km/h 82% 0.00 mm 0.00 W/m2
01:24 29.0 °C 26.0 °C 1011.5 hPa SSE 1 km/h 4 km/h 82% 0.00 mm 0.00 W/m2
01:29 29.0 °C 26.0 °C 1011.5 hPa East 3 km/h 4 km/h 82% 0.00 mm 0.00 W/m2
01:34 29.0 °C 26.0 °C 1011.5 hPa Calm     83% 0.00 mm 0.00 W/m2
01:39 29.0 °C 26.0 °C 1011.2 hPa Calm   4 km/h 83% 0.00 mm 0.00 W/m2
01:44 29.0 °C 26.0 °C 1011.2 hPa Calm     83% 0.00 mm 0.00 W/m2
01:49 29.0 °C 26.0 °C 1011.2 hPa Calm     83% 0.00 mm 0.00 W/m2
01:54 29.0 °C 26.0 °C 1011.2 hPa Calm     83% 0.00 mm 0.00 W/m2
01:59 29.0 °C 26.0 °C 1011.2 hPa Calm   4 km/h 84% 0.00 mm 0.00 W/m2
02:04 29.0 °C 26.0 °C 1011.2 hPa Calm     84% 0.00 mm 0.00 W/m2
02:09 29.0 °C 26.0 °C 1011.2 hPa Calm     84% 0.00 mm 0.00 W/m2
02:14 29.0 °C 26.0 °C 1011.2 hPa Calm   4 km/h 84% 0.00 mm 0.00 W/m2
02:19 29.0 °C 26.0 °C 1011.2 hPa NE 4 km/h 4 km/h 84% 0.00 mm 0.00 W/m2
02:24 29.0 °C 26.0 °C 1010.8 hPa Calm     84% 0.00 mm 0.00 W/m2
02:29 29.0 °C 26.0 °C 1011.2 hPa NE 3 km/h 4 km/h 84% 0.00 mm 0.00 W/m2
02:34 29.0 °C 26.0 °C 1010.8 hPa Calm     84% 0.00 mm 0.00 W/m2
02:39 29.0 °C 26.0 °C 1010.8 hPa East 2 km/h 4 km/h 84% 0.00 mm 0.00 W/m2
02:44 29.0 °C 26.0 °C 1011.2 hPa Calm     84% 0.00 mm 0.00 W/m2
02:49 29.0 °C 26.0 °C 1011.2 hPa Calm     85% 0.00 mm 0.00 W/m2
02:54 29.0 °C 26.0 °C 1011.2 hPa Calm     85% 0.00 mm 0.00 W/m2
02:59 29.0 °C 26.0 °C 1011.2 hPa Calm     85% 0.00 mm 0.00 W/m2
03:04 29.0 °C 26.0 °C 1011.2 hPa Calm     85% 0.00 mm 0.00 W/m2
03:09 29.0 °C 26.0 °C 1010.8 hPa Calm     85% 0.00 mm 0.00 W/m2
03:14 29.0 °C 26.0 °C 1010.8 hPa Calm     85% 0.00 mm 0.00 W/m2
03:19 29.0 °C 26.0 °C 1010.8 hPa Calm     85% 0.00 mm 0.00 W/m2
03:24 28.0 °C 26.0 °C 1011.2 hPa Calm     85% 0.00 mm 0.00 W/m2
03:29 29.0 °C 26.0 °C 1011.2 hPa Calm     85% 0.00 mm 0.00 W/m2
03:34 29.0 °C 26.0 °C 1011.2 hPa Calm     85% 0.00 mm 0.00 W/m2
03:39 28.0 °C 26.0 °C 1011.2 hPa NE 1 km/h 4 km/h 85% 0.00 mm 0.00 W/m2
03:44 28.0 °C 26.0 °C 1011.2 hPa Calm     85% 0.00 mm 0.00 W/m2
03:49 28.0 °C 26.0 °C 1011.2 hPa ESE 3 km/h 4 km/h 85% 0.00 mm 0.00 W/m2
03:54 28.0 °C 26.0 °C 1011.2 hPa Calm     85% 0.00 mm 0.00 W/m2
03:59 28.0 °C 26.0 °C 1011.2 hPa East 4 km/h 4 km/h 85% 0.00 mm 0.00 W/m2
04:04 28.0 °C 26.0 °C 1011.2 hPa SE 3 km/h 4 km/h 85% 0.00 mm 0.00 W/m2
04:09 28.0 °C 26.0 °C 1011.2 hPa SE 2 km/h 4 km/h 85% 0.00 mm 0.00 W/m2
04:14 28.0 °C 26.0 °C 1011.2 hPa Calm     85% 0.00 mm 0.00 W/m2
04:19 28.0 °C 26.0 °C 1011.2 hPa Calm     85% 0.00 mm 0.00 W/m2
04:24 28.0 °C 26.0 °C 1011.5 hPa Calm     85% 0.00 mm 0.00 W/m2
04:29 28.0 °C 26.0 °C 1011.5 hPa Calm     85% 0.00 mm 0.00 W/m2
04:34 28.0 °C 26.0 °C 1011.5 hPa SE 3 km/h 4 km/h 85% 0.00 mm 0.00 W/m2
04:39 28.0 °C 26.0 °C 1011.5 hPa Calm   4 km/h 85% 0.00 mm 0.00 W/m2
04:44 28.0 °C 26.0 °C 1011.5 hPa SSE 2 km/h 4 km/h 85% 0.00 mm 0.00 W/m2
04:49 28.0 °C 26.0 °C 1011.5 hPa East 2 km/h 4 km/h 85% 0.00 mm 0.00 W/m2
04:54 28.0 °C 26.0 °C 1011.5 hPa East 4 km/h 4 km/h 85% 0.00 mm 0.00 W/m2
04:59 28.0 °C 25.0 °C 1011.5 hPa ESE 3 km/h 4 km/h 84% 0.00 mm 0.00 W/m2
05:04 28.0 °C 25.0 °C 1011.5 hPa SE 3 km/h 4 km/h 85% 0.00 mm 0.00 W/m2
05:09 28.0 °C 25.0 °C 1011.2 hPa ESE 1 km/h 4 km/h 85% 0.00 mm 0.00 W/m2
05:14 28.0 °C 25.0 °C 1011.5 hPa Calm     85% 0.00 mm 0.00 W/m2
05:19 28.0 °C 25.0 °C 1011.5 hPa Calm   4 km/h 85% 0.00 mm 0.00 W/m2
05:24 28.0 °C 25.0 °C 1011.5 hPa Calm     85% 0.00 mm 1.28 W/m2
05:29 28.0 °C 25.0 °C 1011.5 hPa South 1 km/h 4 km/h 85% 0.00 mm 4.38 W/m2
05:34 28.0 °C 25.0 °C 1011.9 hPa Calm     85% 0.00 mm 8.15 W/m2
05:39 28.0 °C 25.0 °C 1011.5 hPa Calm     85% 0.00 mm 27.55 W/m2
05:44 28.0 °C 25.0 °C 1011.9 hPa Calm     85% 0.00 mm 28.31 W/m2
05:49 28.0 °C 25.0 °C 1011.9 hPa ESE 5 km/h 8 km/h 85% 0.00 mm 24.55 W/m2
05:54 28.0 °C 25.0 °C 1011.9 hPa SE 3 km/h 4 km/h 85% 0.00 mm 28.81 W/m2
05:59 28.0 °C 25.0 °C 1011.9 hPa SSE 2 km/h 4 km/h 84% 0.00 mm 33.07 W/m2
06:04 28.0 °C 25.0 °C 1012.2 hPa Calm     84% 0.00 mm 37.16 W/m2
06:09 28.0 °C 25.0 °C 1012.2 hPa Calm     83% 0.00 mm 41.10 W/m2
06:14 29.0 °C 25.0 °C 1011.9 hPa Calm     83% 0.00 mm 46.74 W/m2
06:19 29.0 °C 25.0 °C 1012.2 hPa SE 5 km/h 8 km/h 83% 0.00 mm 166.13 W/m2
06:24 29.0 °C 25.0 °C 1012.2 hPa SE 4 km/h 8 km/h 82% 0.00 mm 182.81 W/m2
06:29 29.0 °C 26.0 °C 1012.2 hPa ESE 2 km/h 4 km/h 81% 0.00 mm 195.32 W/m2
06:34 30.0 °C 26.0 °C 1012.2 hPa ESE 1 km/h 4 km/h 79% 0.00 mm 207.87 W/m2
06:39 30.0 °C 26.0 °C 1012.2 hPa ESE 3 km/h 4 km/h 78% 0.00 mm 220.67 W/m2
06:44 31.0 °C 26.0 °C 1012.2 hPa ESE 4 km/h 8 km/h 77% 0.00 mm 230.13 W/m2
06:49 31.0 °C 26.0 °C 1012.2 hPa ESE 5 km/h 8 km/h 77% 0.00 mm 239.38 W/m2
06:54 31.0 °C 26.0 °C 1012.2 hPa SE 5 km/h 8 km/h 76% 0.00 mm 249.32 W/m2
06:59 31.0 °C 26.0 °C 1012.2 hPa SE 5 km/h 8 km/h 76% 0.00 mm 257.90 W/m2
07:04 31.0 °C 26.0 °C 1012.5 hPa WSW 3 km/h 4 km/h 75% 0.00 mm 269.45 W/m2
07:09 31.0 °C 26.0 °C 1012.2 hPa SSE 6 km/h 8 km/h 74% 0.00 mm 277.89 W/m2
07:14 31.0 °C 26.0 °C 1012.5 hPa East 5 km/h 12 km/h 74% 0.00 mm 286.60 W/m2
07:19 32.0 °C 26.0 °C 1012.2 hPa SE 6 km/h 8 km/h 73% 0.00 mm 290.76 W/m2
07:24 32.0 °C 26.0 °C 1012.5 hPa SE 5 km/h 8 km/h 72% 0.00 mm 299.91 W/m2
07:29 32.0 °C 26.0 °C 1012.5 hPa ENE 5 km/h 8 km/h 71% 0.00 mm 308.50 W/m2
07:34 32.0 °C 26.0 °C 1012.5 hPa ESE 10 km/h 12 km/h 71% 0.00 mm 312.86 W/m2
07:39 32.0 °C 26.0 °C 1012.5 hPa ESE 8 km/h 8 km/h 70% 0.00 mm 325.19 W/m2
07:44 32.0 °C 26.0 °C 1012.9 hPa SE 8 km/h 12 km/h 70% 0.00 mm 334.34 W/m2
07:49 32.0 °C 26.0 °C 1012.5 hPa ESE 8 km/h 16 km/h 69% 0.00 mm 337.23 W/m2
07:54 32.0 °C 26.0 °C 1012.5 hPa ESE 7 km/h 12 km/h 69% 0.00 mm 341.68 W/m2
07:59 33.0 °C 26.0 °C 1012.5 hPa SSE 6 km/h 16 km/h 69% 0.00 mm 348.26 W/m2
08:04 33.0 °C 26.0 °C 1012.5 hPa East 7 km/h 12 km/h 69% 0.00 mm 351.49 W/m2
08:09 33.0 °C 26.0 °C 1012.5 hPa ESE 10 km/h 12 km/h 69% 0.00 mm 362.84 W/m2
08:14 32.0 °C 26.0 °C 1012.5 hPa SE 12 km/h 16 km/h 70% 0.00 mm 366.22 W/m2
08:19 33.0 °C 26.0 °C 1012.5 hPa ESE 8 km/h 12 km/h 69% 0.00 mm 370.26 W/m2
08:24 33.0 °C 26.0 °C 1012.2 hPa East 8 km/h 12 km/h 68% 0.00 mm 376.30 W/m2
08:29 33.0 °C 26.0 °C 1012.5 hPa NE 9 km/h 12 km/h 66% 0.00 mm 381.93 W/m2
08:34 34.0 °C 26.0 °C 1012.5 hPa East 8 km/h 12 km/h 65% 0.00 mm 389.37 W/m2
08:39 33.0 °C 25.0 °C 1012.2 hPa East 10 km/h 16 km/h 65% 0.00 mm 396.41 W/m2
08:44 33.0 °C 26.0 °C 1012.2 hPa ESE 10 km/h 16 km/h 65% 0.00 mm 399.03 W/m2
08:49 34.0 °C 26.0 °C 1012.2 hPa North 9 km/h 12 km/h 64% 0.00 mm 407.89 W/m2
08:54 34.0 °C 26.0 °C 1012.2 hPa ESE 6 km/h 8 km/h 62% 0.00 mm 417.80 W/m2
08:59 34.0 °C 26.0 °C 1012.2 hPa East 9 km/h 12 km/h 62% 0.00 mm 424.16 W/m2
09:04 34.0 °C 25.0 °C 1012.2 hPa NE 8 km/h 12 km/h 62% 0.00 mm 429.03 W/m2
09:09 34.0 °C 26.0 °C 1012.2 hPa East 4 km/h 8 km/h 61% 0.00 mm 438.74 W/m2
09:14 34.0 °C 26.0 °C 1011.9 hPa ENE 9 km/h 16 km/h 61% 0.00 mm 440.87 W/m2
09:19 34.0 °C 26.0 °C 1011.9 hPa ESE 12 km/h 16 km/h 62% 0.00 mm 443.44 W/m2
09:24 34.0 °C 25.0 °C 1011.9 hPa ENE 12 km/h 16 km/h 61% 0.00 mm 447.67 W/m2
09:29 34.0 °C 25.0 °C 1011.9 hPa SSW 5 km/h 8 km/h 59% 0.00 mm 454.40 W/m2
09:34 35.0 °C 25.0 °C 1011.9 hPa East 11 km/h 16 km/h 60% 0.00 mm 466.59 W/m2
09:39 34.0 °C 25.0 °C 1011.9 hPa NNE 12 km/h 16 km/h 61% 0.00 mm 481.66 W/m2
09:44 34.0 °C 25.0 °C 1011.9 hPa NNW 10 km/h 12 km/h 63% 0.00 mm 498.66 W/m2
09:49 34.0 °C 26.0 °C 1011.9 hPa North 5 km/h 8 km/h 63% 0.00 mm 498.61 W/m2
09:54 35.0 °C 26.0 °C 1011.9 hPa SSE 11 km/h 20 km/h 60% 0.00 mm 527.04 W/m2
09:59 35.0 °C 26.0 °C 1011.9 hPa North 10 km/h 12 km/h 60% 0.00 mm 548.80 W/m2
10:04 35.0 °C 25.0 °C 1011.9 hPa North 14 km/h 20 km/h 60% 0.00 mm 545.59 W/m2
10:09 34.0 °C 26.0 °C 1011.5 hPa NW 13 km/h 16 km/h 63% 0.00 mm 553.66 W/m2
10:14 34.0 °C 26.0 °C 1011.5 hPa NNW 22 km/h 32 km/h 63% 0.00 mm 557.36 W/m2
10:19 33.0 °C 26.0 °C 1011.5 hPa NW 18 km/h 24 km/h 68% 0.00 mm 426.36 W/m2
10:24 33.0 °C 26.0 °C 1011.5 hPa NW 13 km/h 16 km/h 69% 0.00 mm 503.90 W/m2
10:29 34.0 °C 26.0 °C 1011.5 hPa NW 15 km/h 20 km/h 66% 0.00 mm 515.13 W/m2
10:34 34.0 °C 26.0 °C 1011.5 hPa NW 13 km/h 16 km/h 66% 0.00 mm 511.70 W/m2
10:39 33.0 °C 26.0 °C 1011.5 hPa NW 16 km/h 24 km/h 66% 0.00 mm 531.86 W/m2
10:44 33.0 °C 26.0 °C 1011.2 hPa North 13 km/h 16 km/h 66% 0.00 mm 539.50 W/m2
10:49 34.0 °C 26.0 °C 1011.2 hPa NNW 18 km/h 24 km/h 66% 0.00 mm 555.65 W/m2
10:54 33.0 °C 26.0 °C 1011.2 hPa NW 18 km/h 24 km/h 67% 0.00 mm 559.78 W/m2
10:59 34.0 °C 26.0 °C 1011.2 hPa NW 18 km/h 20 km/h 67% 0.00 mm 578.43 W/m2
11:04 34.0 °C 26.0 °C 1010.8 hPa NW 15 km/h 20 km/h 65% 0.00 mm 562.08 W/m2
11:09 34.0 °C 26.0 °C 1010.8 hPa NW 21 km/h 24 km/h 65% 0.00 mm 554.69 W/m2
11:14 34.0 °C 26.0 °C 1010.8 hPa NW 19 km/h 24 km/h 65% 0.00 mm 554.03 W/m2
11:19 34.0 °C 26.0 °C 1010.8 hPa NW 30 km/h 32 km/h 66% 0.00 mm 574.90 W/m2
11:24 34.0 °C 26.0 °C 1010.8 hPa NW 19 km/h 28 km/h 65% 0.00 mm 576.27 W/m2
11:29 34.0 °C 26.0 °C 1010.5 hPa NW 21 km/h 24 km/h 64% 0.00 mm 558.00 W/m2
11:34 35.0 °C 26.0 °C 1010.5 hPa NNW 17 km/h 20 km/h 63% 0.00 mm 560.15 W/m2
11:39 34.0 °C 26.0 °C 1010.5 hPa NW 15 km/h 20 km/h 63% 0.00 mm 571.11 W/m2
11:44 34.0 °C 26.0 °C 1010.5 hPa NW 24 km/h 32 km/h 63% 0.00 mm 573.68 W/m2
11:49 34.0 °C 26.0 °C 1010.2 hPa NW 23 km/h 24 km/h 62% 0.00 mm 575.24 W/m2
11:54 36.0 °C 27.0 °C 1010.5 hPa NW 19 km/h 28 km/h 61% 0.00 mm 565.46 W/m2
11:59 35.0 °C 26.0 °C 1010.2 hPa NW 18 km/h 24 km/h 63% 0.00 mm 568.17 W/m2
12:04 35.0 °C 26.0 °C 1010.2 hPa NW 19 km/h 28 km/h 62% 0.00 mm 565.04 W/m2
12:09 35.0 °C 26.0 °C 1010.2 hPa North 18 km/h 20 km/h 60% 0.00 mm 578.99 W/m2
12:14 35.0 °C 25.0 °C 1010.2 hPa NNE 9 km/h 12 km/h 56% 0.00 mm 632.55 W/m2
12:19 36.0 °C 26.0 °C 1010.2 hPa East 6 km/h 12 km/h 56% 0.00 mm 636.98 W/m2
12:24 37.0 °C 26.0 °C 1009.8 hPa NNE 10 km/h 16 km/h 54% 0.00 mm 640.25 W/m2
12:29 37.0 °C 26.0 °C 1009.5 hPa North 14 km/h 20 km/h 53% 0.00 mm 614.61 W/m2
12:34 37.0 °C 26.0 °C 1009.8 hPa NNE 17 km/h 20 km/h 55% 0.00 mm 597.73 W/m2
12:39 36.0 °C 25.0 °C 1009.8 hPa North 14 km/h 16 km/h 56% 0.00 mm 572.55 W/m2
12:44 36.0 °C 25.0 °C 1009.5 hPa North 20 km/h 24 km/h 55% 0.00 mm 573.97 W/m2
12:49 36.0 °C 25.0 °C 1009.1 hPa North 19 km/h 24 km/h 55% 0.00 mm 570.64 W/m2
12:54 36.0 °C 25.0 °C 1009.1 hPa NNE 17 km/h 20 km/h 54% 0.00 mm 579.67 W/m2
12:59 37.0 °C 25.0 °C 1009.1 hPa North 15 km/h 16 km/h 53% 0.00 mm 643.02 W/m2
13:04 37.0 °C 26.0 °C 1009.1 hPa NNE 8 km/h 12 km/h 54% 0.00 mm 623.45 W/m2
13:09 37.0 °C 28.0 °C 1008.8 hPa ESE 14 km/h 20 km/h 60% 0.00 mm 587.50 W/m2
13:14 36.0 °C 28.0 °C 1008.8 hPa SSE 17 km/h 20 km/h 64% 0.00 mm 582.93 W/m2
13:19 35.0 °C 28.0 °C 1009.1 hPa South 17 km/h 24 km/h 69% 0.00 mm 529.88 W/m2
13:24 34.0 °C 28.0 °C 1009.1 hPa South 14 km/h 16 km/h 69% 0.00 mm 542.97 W/m2
13:29 35.0 °C 28.0 °C 1008.8 hPa South 12 km/h 16 km/h 68% 0.00 mm 558.36 W/m2
13:34 35.0 °C 28.0 °C 1008.8 hPa SSW 15 km/h 20 km/h 68% 0.00 mm 564.16 W/m2
13:39 35.0 °C 28.0 °C 1008.8 hPa South 13 km/h 16 km/h 67% 0.00 mm 580.77 W/m2
13:44 35.0 °C 28.0 °C 1008.8 hPa South 16 km/h 20 km/h 67% 0.00 mm 579.67 W/m2
13:49 35.0 °C 28.0 °C 1008.8 hPa South 14 km/h 16 km/h 67% 0.00 mm 568.59 W/m2
13:54 35.0 °C 28.0 °C 1008.8 hPa South 15 km/h 20 km/h 67% 0.00 mm 570.30 W/m2
13:59 36.0 °C 28.0 °C 1008.8 hPa South 13 km/h 20 km/h 66% 0.00 mm 563.11 W/m2
14:04 36.0 °C 28.0 °C 1008.5 hPa SSW 14 km/h 16 km/h 66% 0.00 mm 557.11 W/m2
14:09 35.0 °C 27.0 °C 1008.5 hPa South 17 km/h 20 km/h 66% 0.00 mm 537.15 W/m2
14:14 36.0 °C 28.0 °C 1008.5 hPa South 15 km/h 16 km/h 66% 0.00 mm 546.62 W/m2
14:19 35.0 °C 28.0 °C 1008.5 hPa South 12 km/h 16 km/h 64% 0.00 mm 556.53 W/m2
14:24 36.0 °C 27.0 °C 1008.5 hPa South 13 km/h 16 km/h 64% 0.00 mm 482.64 W/m2
14:29 35.0 °C 27.0 °C 1008.5 hPa SSW 13 km/h 16 km/h 64% 0.00 mm 383.59 W/m2
14:34 35.0 °C 27.0 °C 1008.1 hPa SW 10 km/h 16 km/h 65% 0.00 mm 508.74 W/m2
14:39 35.0 °C 27.0 °C 1008.1 hPa WSW 12 km/h 16 km/h 63% 0.00 mm 559.44 W/m2
14:44 36.0 °C 26.0 °C 1008.1 hPa South 14 km/h 16 km/h 61% 0.00 mm 576.08 W/m2
14:49 37.0 °C 26.0 °C 1008.1 hPa SSW 15 km/h 20 km/h 57% 0.00 mm 584.22 W/m2
14:54 36.0 °C 26.0 °C 1007.8 hPa South 10 km/h 12 km/h 59% 0.00 mm 385.16 W/m2
14:59 35.0 °C 25.0 °C 1007.8 hPa SE 20 km/h 24 km/h 56% 0.00 mm 175.91 W/m2
15:04 35.0 °C 24.0 °C 1007.8 hPa SE 17 km/h 20 km/h 55% 0.00 mm 421.66 W/m2
15:09 35.0 °C 24.0 °C 1007.8 hPa SE 21 km/h 28 km/h 55% 0.00 mm 481.83 W/m2
15:14 36.0 °C 24.0 °C 1007.8 hPa SE 18 km/h 20 km/h 53% 0.00 mm 549.24 W/m2
15:19 36.0 °C 24.0 °C 1007.8 hPa SE 17 km/h 24 km/h 52% 0.00 mm 538.81 W/m2
15:24 36.0 °C 24.0 °C 1007.8 hPa SSE 25 km/h 28 km/h 52% 0.00 mm 555.74 W/m2
15:29 36.0 °C 24.0 °C 1007.5 hPa SSE 21 km/h 24 km/h 50% 0.00 mm 373.54 W/m2
15:34 35.0 °C 23.0 °C 1007.5 hPa SE 25 km/h 28 km/h 51% 0.00 mm 526.19 W/m2
15:39 36.0 °C 24.0 °C 1007.5 hPa SSE 18 km/h 24 km/h 50% 0.00 mm 520.05 W/m2
15:44 36.0 °C 24.0 °C 1007.5 hPa SSE 26 km/h 28 km/h 49% 0.00 mm 515.69 W/m2
15:49 36.0 °C 24.0 °C 1007.5 hPa ESE 22 km/h 24 km/h 49% 0.00 mm 494.50 W/m2
15:54 36.0 °C 23.0 °C 1007.5 hPa SE 21 km/h 24 km/h 48% 0.00 mm 507.20 W/m2
15:59 36.0 °C 24.0 °C 1007.5 hPa SE 25 km/h 28 km/h 49% 0.00 mm 508.23 W/m2
16:04 36.0 °C 24.0 °C 1007.5 hPa ESE 18 km/h 24 km/h 49% 0.00 mm 510.14 W/m2
16:09 36.0 °C 24.0 °C 1007.8 hPa SE 15 km/h 16 km/h 49% 0.00 mm 505.27 W/m2
16:14 36.0 °C 24.0 °C 1007.8 hPa SE 21 km/h 24 km/h 49% 0.00 mm 505.81 W/m2
16:19 37.0 °C 24.0 °C 1007.5 hPa SE 25 km/h 28 km/h 50% 0.00 mm 500.15 W/m2
16:24 36.0 °C 24.0 °C 1007.5 hPa SE 24 km/h 28 km/h 49% 0.00 mm 479.82 W/m2
16:29 36.0 °C 24.0 °C 1007.5 hPa SE 18 km/h 20 km/h 49% 0.00 mm 464.80 W/m2
16:34 36.0 °C 23.0 °C 1007.5 hPa ESE 19 km/h 24 km/h 48% 0.00 mm 447.50 W/m2
16:39 36.0 °C 23.0 °C 1007.5 hPa ESE 13 km/h 20 km/h 48% 0.00 mm 409.92 W/m2
16:44 36.0 °C 23.0 °C 1007.5 hPa SSW 10 km/h 16 km/h 47% 0.00 mm 407.60 W/m2
16:49 36.0 °C 23.0 °C 1007.5 hPa ENE 11 km/h 16 km/h 47% 0.00 mm 398.71 W/m2
16:54 36.0 °C 23.0 °C 1007.5 hPa East 12 km/h 16 km/h 47% 0.00 mm 380.83 W/m2
16:59 36.0 °C 23.0 °C 1007.8 hPa SE 13 km/h 16 km/h 47% 0.00 mm 365.07 W/m2
17:04 36.0 °C 23.0 °C 1007.8 hPa ESE 13 km/h 16 km/h 48% 0.00 mm 349.46 W/m2
17:09 35.0 °C 23.0 °C 1007.8 hPa ESE 15 km/h 24 km/h 48% 0.00 mm 340.90 W/m2
17:14 35.0 °C 23.0 °C 1007.8 hPa NE 15 km/h 20 km/h 49% 0.00 mm 326.80 W/m2
17:19 35.0 °C 23.0 °C 1007.8 hPa NE 10 km/h 12 km/h 49% 0.00 mm 307.67 W/m2
17:24 35.0 °C 23.0 °C 1007.8 hPa SSE 15 km/h 20 km/h 51% 0.00 mm 284.21 W/m2
17:29 35.0 °C 23.0 °C 1007.8 hPa SE 14 km/h 20 km/h 52% 0.00 mm 263.02 W/m2
17:34 34.0 °C 23.0 °C 1007.8 hPa SE 15 km/h 16 km/h 52% 0.00 mm 244.28 W/m2
17:39 34.0 °C 23.0 °C 1007.8 hPa East 12 km/h 16 km/h 53% 0.00 mm 220.71 W/m2
17:44 34.0 °C 23.0 °C 1007.8 hPa East 10 km/h 12 km/h 53% 0.00 mm 202.90 W/m2
17:49 35.0 °C 24.0 °C 1007.8 hPa SE 15 km/h 24 km/h 53% 0.00 mm 181.44 W/m2
17:54 34.0 °C 23.0 °C 1007.8 hPa SE 12 km/h 16 km/h 53% 0.00 mm 158.69 W/m2
17:59 34.0 °C 23.0 °C 1007.8 hPa East 11 km/h 16 km/h 53% 0.00 mm 126.69 W/m2
18:04 34.0 °C 23.0 °C 1007.8 hPa SSW 7 km/h 8 km/h 54% 0.00 mm 99.97 W/m2
18:09 34.0 °C 23.0 °C 1007.8 hPa ESE 5 km/h 8 km/h 54% 0.00 mm 65.78 W/m2
18:14 34.0 °C 23.0 °C 1007.8 hPa East 3 km/h 4 km/h 54% 0.00 mm 39.88 W/m2
18:19 34.0 °C 23.0 °C 1007.8 hPa East 8 km/h 12 km/h 55% 0.00 mm 12.45 W/m2
18:24 33.0 °C 23.0 °C 1007.8 hPa ESE 1 km/h 4 km/h 55% 0.00 mm 4.78 W/m2
18:29 33.0 °C 24.0 °C 1007.8 hPa East 6 km/h 12 km/h 57% 0.00 mm 1.64 W/m2
18:34 33.0 °C 24.0 °C 1007.8 hPa SE 7 km/h 8 km/h 57% 0.00 mm 0.00 W/m2
18:39 33.0 °C 24.0 °C 1008.1 hPa ESE 6 km/h 8 km/h 58% 0.00 mm 0.00 W/m2
18:44 33.0 °C 24.0 °C 1008.1 hPa ESE 6 km/h 12 km/h 58% 0.00 mm 0.00 W/m2
18:49 33.0 °C 23.0 °C 1008.5 hPa SE 10 km/h 16 km/h 58% 0.00 mm 0.00 W/m2
18:54 33.0 °C 24.0 °C 1008.5 hPa East 5 km/h 8 km/h 59% 0.00 mm 0.00 W/m2
18:59 33.0 °C 23.0 °C 1008.5 hPa East 5 km/h 8 km/h 58% 0.00 mm 0.00 W/m2
19:04 33.0 °C 23.0 °C 1008.5 hPa ESE 4 km/h 8 km/h 56% 0.00 mm 0.00 W/m2
19:09 33.0 °C 23.0 °C 1008.5 hPa ESE 4 km/h 8 km/h 56% 0.00 mm 0.00 W/m2
19:14 33.0 °C 23.0 °C 1008.5 hPa ENE 5 km/h 8 km/h 56% 0.00 mm 0.00 W/m2
19:19 33.0 °C 23.0 °C 1008.5 hPa SE 3 km/h 4 km/h 57% 0.00 mm 0.00 W/m2
19:24 33.0 °C 23.0 °C 1008.5 hPa ESE 7 km/h 8 km/h 57% 0.00 mm 0.00 W/m2
19:29 33.0 °C 23.0 °C 1008.5 hPa East 5 km/h 8 km/h 58% 0.00 mm 0.00 W/m2
19:34 32.0 °C 23.0 °C 1008.5 hPa South 6 km/h 8 km/h 58% 0.00 mm 0.00 W/m2
19:39 32.0 °C 23.0 °C 1008.8 hPa SE 4 km/h 8 km/h 58% 0.00 mm 0.00 W/m2
19:44 32.0 °C 23.0 °C 1008.8 hPa East 4 km/h 4 km/h 58% 0.00 mm 0.00 W/m2
19:49 32.0 °C 23.0 °C 1008.8 hPa East 6 km/h 8 km/h 59% 0.00 mm 0.00 W/m2
19:54 32.0 °C 23.0 °C 1008.8 hPa East 4 km/h 8 km/h 59% 0.00 mm 0.00 W/m2
19:59 32.0 °C 23.0 °C 1008.8 hPa East 8 km/h 12 km/h 59% 0.00 mm 0.00 W/m2
20:04 32.0 °C 23.0 °C 1008.8 hPa ESE 10 km/h 12 km/h 59% 0.00 mm 0.00 W/m2
20:09 32.0 °C 23.0 °C 1009.1 hPa ESE 5 km/h 8 km/h 60% 0.00 mm 0.00 W/m2
20:14 32.0 °C 23.0 °C 1009.1 hPa East 1 km/h 4 km/h 60% 0.00 mm 0.00 W/m2
20:19 32.0 °C 23.0 °C 1009.1 hPa ESE 6 km/h 12 km/h 60% 0.00 mm 0.00 W/m2
20:24 32.0 °C 23.0 °C 1009.1 hPa ESE 4 km/h 8 km/h 60% 0.00 mm 0.00 W/m2
20:29 32.0 °C 23.0 °C 1009.1 hPa Calm   4 km/h 61% 0.00 mm 0.00 W/m2
20:34 32.0 °C 23.0 °C 1009.1 hPa NE 3 km/h 4 km/h 61% 0.00 mm 0.00 W/m2
20:39 32.0 °C 23.0 °C 1009.1 hPa SE 4 km/h 8 km/h 61% 0.00 mm 0.00 W/m2
20:44 31.0 °C 23.0 °C 1009.1 hPa ESE 5 km/h 12 km/h 62% 0.00 mm 0.00 W/m2
20:49 31.0 °C 23.0 °C 1009.1 hPa ESE 5 km/h 8 km/h 62% 0.00 mm 0.00 W/m2
20:54 31.0 °C 23.0 °C 1009.1 hPa ESE 5 km/h 8 km/h 62% 0.00 mm 0.00 W/m2
20:59 31.0 °C 23.0 °C 1009.1 hPa East 9 km/h 12 km/h 62% 0.00 mm 0.00 W/m2
21:04 31.0 °C 23.0 °C 1009.1 hPa SE 1 km/h 4 km/h 62% 0.00 mm 0.00 W/m2
21:09 31.0 °C 23.0 °C 1009.5 hPa ESE 3 km/h 4 km/h 63% 0.00 mm 0.00 W/m2
21:14 31.0 °C 23.0 °C 1009.1 hPa SSE 2 km/h 4 km/h 63% 0.00 mm 0.00 W/m2
21:19 31.0 °C 23.0 °C 1009.5 hPa East 8 km/h 8 km/h 63% 0.00 mm 0.00 W/m2
21:24 31.0 °C 23.0 °C 1009.5 hPa SE 6 km/h 8 km/h 63% 0.00 mm 0.00 W/m2
21:29 31.0 °C 23.0 °C 1009.5 hPa East 5 km/h 8 km/h 63% 0.00 mm 0.00 W/m2
21:34 31.0 °C 23.0 °C 1009.5 hPa NE 5 km/h 8 km/h 63% 0.00 mm 0.00 W/m2
21:39 31.0 °C 23.0 °C 1009.5 hPa SE 1 km/h 4 km/h 63% 0.00 mm 0.00 W/m2
21:44 31.0 °C 23.0 °C 1009.5 hPa SE 4 km/h 8 km/h 63% 0.00 mm 0.00 W/m2
21:49 31.0 °C 23.0 °C 1009.8 hPa ESE 3 km/h 8 km/h 63% 0.00 mm 0.00 W/m2
21:54 31.0 °C 23.0 °C 1009.8 hPa ESE 3 km/h 4 km/h 64% 0.00 mm 0.00 W/m2
21:59 31.0 °C 23.0 °C 1009.8 hPa Calm   4 km/h 64% 0.00 mm 0.00 W/m2
22:04 31.0 °C 23.0 °C 1009.8 hPa NW 1 km/h 4 km/h 64% 0.00 mm 0.00 W/m2
22:09 31.0 °C 23.0 °C 1009.8 hPa Calm   4 km/h 64% 0.00 mm 0.00 W/m2
22:14 31.0 °C 23.0 °C 1009.5 hPa Calm   4 km/h 64% 0.00 mm 0.00 W/m2
22:19 31.0 °C 23.0 °C 1009.8 hPa NE 1 km/h 4 km/h 64% 0.00 mm 0.00 W/m2
22:24 31.0 °C 23.0 °C 1009.8 hPa Calm     64% 0.00 mm 0.00 W/m2
22:29 31.0 °C 23.0 °C 1009.8 hPa East 6 km/h 8 km/h 64% 0.00 mm 0.00 W/m2
22:34 31.0 °C 23.0 °C 1009.8 hPa ESE 5 km/h 8 km/h 64% 0.00 mm 0.00 W/m2
22:39 31.0 °C 23.0 °C 1010.2 hPa ESE 1 km/h 4 km/h 64% 0.00 mm 0.00 W/m2
22:44 31.0 °C 23.0 °C 1009.8 hPa SE 4 km/h 8 km/h 64% 0.00 mm 0.00 W/m2
22:49 31.0 °C 23.0 °C 1009.8 hPa Calm     65% 0.00 mm 0.00 W/m2
22:54 31.0 °C 23.0 °C 1009.8 hPa Calm     65% 0.00 mm 0.00 W/m2
22:59 30.0 °C 23.0 °C 1009.8 hPa Calm   4 km/h 66% 0.00 mm 0.00 W/m2
23:04 30.0 °C 23.0 °C 1009.8 hPa Calm     66% 0.00 mm 0.00 W/m2
23:09 30.0 °C 23.0 °C 1009.8 hPa Calm     66% 0.00 mm 0.00 W/m2
23:14 30.0 °C 23.0 °C 1009.8 hPa Calm     66% 0.00 mm 0.00 W/m2
23:19 30.0 °C 24.0 °C 1009.8 hPa Calm     67% 0.00 mm 0.00 W/m2
23:24 30.0 °C 23.0 °C 1009.8 hPa Calm     67% 0.00 mm 0.00 W/m2
23:29 30.0 °C 23.0 °C 1009.8 hPa Calm     67% 0.00 mm 0.00 W/m2
23:34 30.0 °C 24.0 °C 1010.2 hPa Calm     67% 0.00 mm 0.00 W/m2
23:39 30.0 °C 24.0 °C 1010.2 hPa Calm     67% 0.00 mm 0.00 W/m2
23:44 30.0 °C 23.0 °C 1010.2 hPa Calm     67% 0.00 mm 0.00 W/m2
23:49 30.0 °C 23.0 °C 1010.2 hPa Calm     67% 0.00 mm 0.00 W/m2
23:54 30.0 °C 23.0 °C 1009.8 hPa Calm     67% 0.00 mm 0.00 W/m2
23:59 30.0 °C 23.0 °C 1009.8 hPa Calm     67% 0.00 mm 0.00 W/m2
PIMOHWEATHER Philippines
Compliments of Weather Underground - 2 mb